Time,TemperatureF,DewpointF,PressureIn,WindDirection,WindDirectionDegrees,WindSpeedMPH,WindSpeedGustMPH,Humidity,HourlyPrecipIn,Conditions,Clouds,dailyrainin,SoftwareType,DateUTC
2013-07-24 00:01:00,66.6,65.7,28.05,West,270,0.0,4.0,97,0.00,,,0.00,Weather View 32 v70,2013-07-24 04:01:00,
2013-07-24 00:06:00,66.5,65.9,28.05,North,360,0.0,2.0,98,0.00,,,0.00,Weather View 32 v70,2013-07-24 04:06:00,
2013-07-24 00:11:00,66.5,65.9,28.04,North,360,1.0,2.0,98,0.00,,,0.00,Weather View 32 v70,2013-07-24 04:11:00,
2013-07-24 00:16:00,66.6,66.0,28.05,North,360,0.0,2.0,98,0.00,,,0.00,Weather View 32 v70,2013-07-24 04:16:00,
2013-07-24 00:21:00,66.6,66.0,28.04,North,360,0.0,2.0,98,0.00,,,0.00,Weather View 32 v70,2013-07-24 04:21:00,
2013-07-24 00:26:00,66.5,65.9,28.04,North,360,1.0,2.0,98,0.00,,,0.00,Weather View 32 v70,2013-07-24 04:26:00,
2013-07-24 00:31:00,66.5,65.9,28.04,North,360,0.0,2.0,98,0.00,,,0.00,Weather View 32 v70,2013-07-24 04:31:00,
2013-07-24 00:37:00,66.7,66.1,28.04,SW,225,0.0,2.0,98,0.00,,,0.00,Weather View 32 v70,2013-07-24 04:37:00,
2013-07-24 00:42:00,66.9,66.0,28.04,SW,225,0.0,2.0,97,0.00,,,0.00,Weather View 32 v70,2013-07-24 04:42:00,
2013-07-24 00:47:00,67.0,66.4,28.04,North,360,0.0,4.0,98,0.00,,,0.00,Weather View 32 v70,2013-07-24 04:47:00,
2013-07-24 00:52:00,67.1,66.5,28.03,North,360,0.0,4.0,98,0.00,,,0.00,Weather View 32 v70,2013-07-24 04:52:00,
2013-07-24 00:57:00,67.2,66.3,28.03,North,360,0.0,4.0,97,0.00,,,0.00,Weather View 32 v70,2013-07-24 04:57:00,
2013-07-24 01:02:00,67.3,66.4,28.03,North,360,0.0,4.0,97,0.00,,,0.00,Weather View 32 v70,2013-07-24 05:02:00,
2013-07-24 01:07:00,67.4,66.5,28.03,North,360,0.0,4.0,97,0.00,,,0.00,Weather View 32 v70,2013-07-24 05:07:00,
2013-07-24 01:12:00,67.5,66.9,28.03,North,360,0.0,4.0,98,0.00,,,0.00,Weather View 32 v70,2013-07-24 05:12:00,
2013-07-24 01:17:00,67.5,66.6,28.03,North,360,0.0,4.0,97,0.00,,,0.00,Weather View 32 v70,2013-07-24 05:17:00,
2013-07-24 01:22:00,67.5,66.6,28.03,North,360,0.0,4.0,97,0.00,,,0.00,Weather View 32 v70,2013-07-24 05:22:00,
2013-07-24 01:27:00,67.5,66.9,28.03,South,180,2.0,4.0,98,0.00,,,0.00,Weather View 32 v70,2013-07-24 05:27:00,
2013-07-24 01:32:00,67.9,67.0,28.03,South,180,2.0,4.0,97,0.00,,,0.00,Weather View 32 v70,2013-07-24 05:32:00,
2013-07-24 01:37:00,67.9,66.7,28.02,SE,135,2.0,4.0,96,0.00,,,0.00,Weather View 32 v70,2013-07-24 05:37:00,
2013-07-24 01:42:00,68.0,66.5,28.02,WNW,292,2.0,4.0,95,0.00,,,0.00,Weather View 32 v70,2013-07-24 05:42:00,
2013-07-24 01:47:00,67.9,66.7,28.02,NW,315,1.0,4.0,96,0.00,,,0.00,Weather View 32 v70,2013-07-24 05:47:00,
2013-07-24 01:52:00,67.6,66.7,28.02,NW,315,2.0,4.0,97,0.00,,,0.00,Weather View 32 v70,2013-07-24 05:52:00,
2013-07-24 01:57:00,67.3,67.0,28.01,NW,315,0.0,4.0,99,0.00,,,0.00,Weather View 32 v70,2013-07-24 05:57:00,
2013-07-24 02:02:00,67.0,66.7,28.01,NW,315,0.0,4.0,99,0.00,,,0.00,Weather View 32 v70,2013-07-24 06:02:00,
2013-07-24 02:07:00,66.9,66.6,28.01,NW,315,0.0,4.0,99,0.00,,,0.00,Weather View 32 v70,2013-07-24 06:07:00,
2013-07-24 02:12:00,66.7,66.4,28.01,NW,315,0.0,4.0,99,0.00,,,0.00,Weather View 32 v70,2013-07-24 06:12:00,
2013-07-24 02:17:00,66.6,66.3,28.01,NW,315,0.0,4.0,99,0.00,,,0.00,Weather View 32 v70,2013-07-24 06:17:00,
2013-07-24 02:22:00,66.6,66.3,28.01,NW,315,0.0,4.0,99,0.00,,,0.00,Weather View 32 v70,2013-07-24 06:22:00,
2013-07-24 02:27:00,66.7,66.4,28.01,NW,315,0.0,4.0,99,0.00,,,0.00,Weather View 32 v70,2013-07-24 06:27:00,
2013-07-24 02:32:00,66.8,66.5,28.01,WNW,292,0.0,4.0,99,0.00,,,0.00,Weather View 32 v70,2013-07-24 06:32:00,
2013-07-24 02:37:00,66.9,66.3,28.01,West,270,0.0,4.0,98,0.00,,,0.00,Weather View 32 v70,2013-07-24 06:37:00,
2013-07-24 02:42:00,67.5,66.0,28.00,South,180,1.0,4.0,95,0.00,,,0.00,Weather View 32 v70,2013-07-24 06:42:00,
2013-07-24 02:47:00,67.9,66.1,28.00,South,180,0.0,4.0,94,0.00,,,0.00,Weather View 32 v70,2013-07-24 06:47:00,
2013-07-24 02:52:00,67.9,65.8,28.00,SE,135,1.0,3.0,93,0.00,,,0.00,Weather View 32 v70,2013-07-24 06:52:00,
2013-07-24 02:57:00,68.1,66.0,28.00,SE,135,2.0,2.0,93,0.00,,,0.00,Weather View 32 v70,2013-07-24 06:57:00,
2013-07-24 03:02:00,68.9,63.8,28.00,SE,135,2.0,5.0,84,0.00,,,0.00,Weather View 32 v70,2013-07-24 07:02:00,
2013-07-24 03:07:00,69.7,65.0,28.00,SSW,202,2.0,5.0,85,0.00,,,0.00,Weather View 32 v70,2013-07-24 07:07:00,
2013-07-24 03:12:00,70.1,65.0,28.00,West,270,1.0,6.0,84,0.00,,,0.00,Weather View 32 v70,2013-07-24 07:12:00,
2013-07-24 03:17:00,69.8,63.7,28.00,SW,225,2.0,6.0,81,0.00,,,0.00,Weather View 32 v70,2013-07-24 07:17:00,
2013-07-24 03:22:00,70.3,63.1,28.00,SW,225,3.0,6.0,78,0.00,,,0.00,Weather View 32 v70,2013-07-24 07:22:00,
2013-07-24 03:27:00,70.8,64.3,28.00,NW,315,2.0,7.0,80,0.00,,,0.00,Weather View 32 v70,2013-07-24 07:27:00,
2013-07-24 03:32:00,70.3,63.5,28.00,SW,225,4.0,7.0,79,0.00,,,0.00,Weather View 32 v70,2013-07-24 07:32:00,
2013-07-24 03:37:00,70.6,63.4,27.99,SW,225,7.0,8.0,78,0.00,,,0.00,Weather View 32 v70,2013-07-24 07:37:00,
2013-07-24 03:42:00,71.3,63.3,27.99,SSW,202,6.0,8.0,76,0.00,,,0.00,Weather View 32 v70,2013-07-24 07:42:00,
2013-07-24 03:47:00,71.9,63.5,27.99,SW,225,5.0,9.0,75,0.00,,,0.00,Weather View 32 v70,2013-07-24 07:47:00,
2013-07-24 03:52:00,72.3,63.5,27.99,NW,315,4.0,9.0,74,0.00,,,0.00,Weather View 32 v70,2013-07-24 07:52:00,
2013-07-24 03:57:00,72.5,63.7,27.99,WNW,292,4.0,9.0,74,0.00,,,0.00,Weather View 32 v70,2013-07-24 07:57:00,
2013-07-24 04:02:00,72.3,63.9,27.99,West,270,2.0,9.0,75,0.00,,,0.00,Weather View 32 v70,2013-07-24 08:02:00,
2013-07-24 04:07:00,71.6,64.0,28.00,North,360,2.0,9.0,77,0.00,,,0.00,Weather View 32 v70,2013-07-24 08:07:00,
2013-07-24 04:12:00,70.9,63.7,28.00,NW,315,1.0,9.0,78,0.00,,,0.00,Weather View 32 v70,2013-07-24 08:12:00,
2013-07-24 04:17:00,70.2,63.7,28.00,NW,315,0.0,9.0,80,0.00,,,0.00,Weather View 32 v70,2013-07-24 08:17:00,
2013-07-24 04:22:00,69.5,64.8,27.99,ESE,112,3.0,9.0,85,0.00,,,0.00,Weather View 32 v70,2013-07-24 08:22:00,
2013-07-24 04:27:00,69.7,63.6,27.99,North,360,1.0,9.0,81,0.00,,,0.00,Weather View 32 v70,2013-07-24 08:27:00,
2013-07-24 04:32:00,69.9,63.8,28.00,North,360,2.0,9.0,81,0.00,,,0.00,Weather View 32 v70,2013-07-24 08:32:00,
2013-07-24 04:37:00,70.1,64.0,27.99,WNW,292,2.0,9.0,81,0.00,,,0.00,Weather View 32 v70,2013-07-24 08:37:00,
2013-07-24 04:42:00,69.9,64.1,28.00,NNW,337,1.0,9.0,82,0.00,,,0.00,Weather View 32 v70,2013-07-24 08:42:00,
2013-07-24 04:47:00,69.9,64.1,28.00,West,270,1.0,9.0,82,0.00,,,0.00,Weather View 32 v70,2013-07-24 08:47:00,
2013-07-24 04:52:00,69.9,64.1,28.00,WNW,292,2.0,9.0,82,0.00,,,0.00,Weather View 32 v70,2013-07-24 08:52:00,
2013-07-24 04:57:00,69.7,64.3,28.00,NNW,337,3.0,5.0,83,0.00,,,0.00,Weather View 32 v70,2013-07-24 08:57:00,
2013-07-24 05:02:00,69.7,64.3,28.00,North,360,2.0,5.0,83,0.00,,,0.00,Weather View 32 v70,2013-07-24 09:02:00,
2013-07-24 05:07:00,69.8,64.7,28.00,ESE,112,2.0,5.0,84,0.00,,,0.00,Weather View 32 v70,2013-07-24 09:07:00,
2013-07-24 05:12:00,69.3,64.9,28.00,ESE,112,1.0,5.0,86,0.00,,,0.00,Weather View 32 v70,2013-07-24 09:12:00,
2013-07-24 05:17:00,68.7,64.7,28.00,ESE,112,0.0,5.0,87,0.00,,,0.00,Weather View 32 v70,2013-07-24 09:17:00,
2013-07-24 05:22:00,68.3,64.6,28.00,ESE,112,0.0,5.0,88,0.00,,,0.00,Weather View 32 v70,2013-07-24 09:22:00,
2013-07-24 05:27:00,67.9,64.5,28.00,ESE,112,0.0,5.0,89,0.00,,,0.00,Weather View 32 v70,2013-07-24 09:27:00,
2013-07-24 05:32:00,67.7,65.0,28.00,ESE,112,0.0,5.0,91,0.00,,,0.00,Weather View 32 v70,2013-07-24 09:32:00,
2013-07-24 05:37:00,67.3,65.2,28.00,SSE,157,0.0,5.0,93,0.00,,,0.00,Weather View 32 v70,2013-07-24 09:37:00,
2013-07-24 05:42:00,67.1,65.3,28.01,SSE,157,1.0,5.0,94,0.00,,,0.00,Weather View 32 v70,2013-07-24 09:42:00,
2013-07-24 05:47:00,67.1,64.7,28.01,SSE,157,0.0,5.0,92,0.00,,,0.00,Weather View 32 v70,2013-07-24 09:47:00,
2013-07-24 05:52:00,67.5,64.8,28.01,SE,135,0.0,4.0,91,0.00,,,0.00,Weather View 32 v70,2013-07-24 09:52:00,
2013-07-24 05:57:00,67.6,65.5,28.02,WNW,292,2.0,4.0,93,0.00,,,0.00,Weather View 32 v70,2013-07-24 09:57:00,
2013-07-24 06:02:00,67.3,65.2,28.02,WNW,292,0.0,4.0,93,0.00,,,0.00,Weather View 32 v70,2013-07-24 10:02:00,
2013-07-24 06:07:00,66.9,65.1,28.02,WNW,292,0.0,3.0,94,0.00,,,0.00,Weather View 32 v70,2013-07-24 10:07:00,
2013-07-24 06:12:00,67.1,65.6,28.02,ESE,112,1.0,5.0,95,0.00,,,0.00,Weather View 32 v70,2013-07-24 10:12:00,
2013-07-24 06:17:00,67.1,65.6,28.02,North,360,1.0,5.0,95,0.00,,,0.00,Weather View 32 v70,2013-07-24 10:17:00,
2013-07-24 06:22:00,66.9,65.1,28.02,North,360,0.0,5.0,94,0.00,,,0.00,Weather View 32 v70,2013-07-24 10:22:00,
2013-07-24 06:27:00,66.7,65.2,28.02,North,360,0.0,5.0,95,0.00,,,0.00,Weather View 32 v70,2013-07-24 10:27:00,
2013-07-24 06:32:00,66.6,65.7,28.02,North,360,2.0,5.0,97,0.00,,,0.00,Weather View 32 v70,2013-07-24 10:32:00,
2013-07-24 06:37:00,66.5,65.6,28.02,North,360,0.0,5.0,97,0.00,,,0.00,Weather View 32 v70,2013-07-24 10:37:00,
2013-07-24 06:42:00,66.4,65.8,28.02,North,360,0.0,5.0,98,0.00,,,0.00,Weather View 32 v70,2013-07-24 10:42:00,
2013-07-24 06:47:00,66.4,65.8,28.02,North,360,0.0,5.0,98,0.00,,,0.00,Weather View 32 v70,2013-07-24 10:47:00,
2013-07-24 06:52:00,66.4,66.1,28.03,North,360,0.0,5.0,99,0.00,,,0.00,Weather View 32 v70,2013-07-24 10:52:00,
2013-07-24 06:57:00,66.4,66.1,28.03,North,360,0.0,5.0,99,0.00,,,0.00,Weather View 32 v70,2013-07-24 10:57:00,
2013-07-24 07:02:00,66.4,65.8,28.03,North,360,0.0,5.0,98,0.00,,,0.00,Weather View 32 v70,2013-07-24 11:02:00,
2013-07-24 07:07:00,66.5,65.9,28.03,North,360,0.0,5.0,98,0.00,,,0.00,Weather View 32 v70,2013-07-24 11:07:00,
2013-07-24 07:12:00,66.8,66.2,28.03,North,360,0.0,3.0,98,0.00,,,0.00,Weather View 32 v70,2013-07-24 11:12:00,
2013-07-24 07:17:00,67.1,66.5,28.03,East,90,2.0,2.0,98,0.00,,,0.00,Weather View 32 v70,2013-07-24 11:17:00,
2013-07-24 07:22:00,67.5,67.2,28.03,East,90,2.0,2.0,99,0.00,,,0.00,Weather View 32 v70,2013-07-24 11:22:00,
2013-07-24 07:27:00,67.6,67.0,28.03,East,90,0.0,2.0,98,0.00,,,0.00,Weather View 32 v70,2013-07-24 11:27:00,
2013-07-24 07:32:00,67.6,67.0,28.04,East,90,0.0,2.0,98,0.00,,,0.00,Weather View 32 v70,2013-07-24 11:32:00,
2013-07-24 07:38:00,67.6,67.0,28.04,East,90,0.0,2.0,98,0.00,,,0.00,Weather View 32 v70,2013-07-24 11:38:00,
2013-07-24 07:43:00,67.6,66.7,28.04,East,90,0.0,2.0,97,0.00,,,0.00,Weather View 32 v70,2013-07-24 11:43:00,
2013-07-24 07:48:00,67.7,66.8,28.04,East,90,0.0,2.0,97,0.00,,,0.00,Weather View 32 v70,2013-07-24 11:48:00,
2013-07-24 07:53:00,67.9,67.3,28.04,East,90,0.0,2.0,98,0.00,,,0.00,Weather View 32 v70,2013-07-24 11:53:00,
2013-07-24 07:58:00,68.1,67.5,28.04,NW,315,2.0,2.0,98,0.00,,,0.00,Weather View 32 v70,2013-07-24 11:58:00,
2013-07-24 08:03:00,68.3,67.7,28.05,WNW,292,1.0,2.0,98,0.00,,,0.00,Weather View 32 v70,2013-07-24 12:03:00,
2013-07-24 08:08:00,68.3,67.7,28.05,WNW,292,0.0,3.0,98,0.00,,,0.00,Weather View 32 v70,2013-07-24 12:08:00,
2013-07-24 08:13:00,68.3,67.7,28.06,WNW,292,0.0,3.0,98,0.00,,,0.00,Weather View 32 v70,2013-07-24 12:13:00,
2013-07-24 08:18:00,68.6,68.0,28.06,WNW,292,0.0,3.0,98,0.00,,,0.00,Weather View 32 v70,2013-07-24 12:18:00,
2013-07-24 08:23:00,68.9,68.3,28.06,NNW,337,2.0,3.0,98,0.00,,,0.00,Weather View 32 v70,2013-07-24 12:23:00,
2013-07-24 08:28:00,69.4,68.2,28.06,NNW,337,1.0,3.0,96,0.00,,,0.00,Weather View 32 v70,2013-07-24 12:28:00,
2013-07-24 08:33:00,69.7,68.5,28.06,NNW,337,0.0,3.0,96,0.00,,,0.00,Weather View 32 v70,2013-07-24 12:33:00,
2013-07-24 08:38:00,69.9,68.7,28.07,NNW,337,0.0,3.0,96,0.00,,,0.00,Weather View 32 v70,2013-07-24 12:38:00,
2013-07-24 08:43:00,70.0,67.9,28.07,North,360,1.0,3.0,93,0.00,,,0.00,Weather View 32 v70,2013-07-24 12:43:00,
2013-07-24 08:48:00,70.1,68.0,28.07,North,360,1.0,3.0,93,0.00,,,0.00,Weather View 32 v70,2013-07-24 12:48:00,
2013-07-24 08:53:00,70.3,68.2,28.07,North,360,2.0,4.0,93,0.00,,,0.00,Weather View 32 v70,2013-07-24 12:53:00,
2013-07-24 08:58:00,70.5,68.1,28.07,North,360,1.0,4.0,92,0.00,,,0.00,Weather View 32 v70,2013-07-24 12:58:00,
2013-07-24 09:03:00,70.8,68.3,28.08,North,360,1.0,4.0,92,0.00,,,0.00,Weather View 32 v70,2013-07-24 13:03:00,
2013-07-24 09:08:00,71.3,68.2,28.08,North,360,2.0,4.0,90,0.00,,,0.00,Weather View 32 v70,2013-07-24 13:08:00,
2013-07-24 09:13:00,71.8,68.4,28.08,North,360,1.0,4.0,89,0.00,,,0.00,Weather View 32 v70,2013-07-24 13:13:00,
2013-07-24 09:18:00,72.2,67.8,28.07,North,360,1.0,6.0,86,0.00,,,0.00,Weather View 32 v70,2013-07-24 13:18:00,
2013-07-24 09:23:00,72.4,68.0,28.07,North,360,2.0,6.0,86,0.00,,,0.00,Weather View 32 v70,2013-07-24 13:23:00,
2013-07-24 09:28:00,72.7,68.3,28.07,North,360,0.0,6.0,86,0.00,,,0.00,Weather View 32 v70,2013-07-24 13:28:00,
2013-07-24 09:33:00,72.9,68.4,28.07,North,360,2.0,6.0,86,0.00,,,0.00,Weather View 32 v70,2013-07-24 13:33:00,
2013-07-24 09:38:00,73.1,68.6,28.07,North,360,2.0,6.0,86,0.00,,,0.00,Weather View 32 v70,2013-07-24 13:38:00,
2013-07-24 09:43:00,73.3,68.2,28.08,North,360,3.0,6.0,84,0.00,,,0.00,Weather View 32 v70,2013-07-24 13:43:00,
2013-07-24 09:48:00,73.1,67.3,28.08,North,360,2.0,6.0,82,0.00,,,0.00,Weather View 32 v70,2013-07-24 13:48:00,
2013-07-24 09:53:00,73.2,67.7,28.08,North,360,1.0,6.0,83,0.00,,,0.00,Weather View 32 v70,2013-07-24 13:53:00,
2013-07-24 09:58:00,73.2,67.4,28.09,North,360,2.0,6.0,82,0.00,,,0.00,Weather View 32 v70,2013-07-24 13:58:00,
2013-07-24 10:03:00,73.3,67.8,28.09,North,360,2.0,6.0,83,0.00,,,0.00,Weather View 32 v70,2013-07-24 14:03:00,
2013-07-24 10:08:00,73.3,67.4,28.09,North,360,1.0,6.0,82,0.00,,,0.00,Weather View 32 v70,2013-07-24 14:08:00,
2013-07-24 10:13:00,73.6,68.1,28.09,North,360,2.0,6.0,83,0.00,,,0.00,Weather View 32 v70,2013-07-24 14:13:00,
2013-07-24 10:18:00,73.9,68.7,28.09,North,360,0.0,6.0,84,0.00,,,0.00,Weather View 32 v70,2013-07-24 14:18:00,
2013-07-24 10:23:00,74.3,70.2,28.09,East,90,1.0,5.0,87,0.00,,,0.00,Weather View 32 v70,2013-07-24 14:23:00,
2013-07-24 10:28:00,74.5,69.7,28.09,SE,135,0.0,5.0,85,0.00,,,0.00,Weather View 32 v70,2013-07-24 14:28:00,
2013-07-24 10:33:00,74.9,69.0,28.09,East,90,2.0,5.0,82,0.00,,,0.00,Weather View 32 v70,2013-07-24 14:33:00,
2013-07-24 10:38:00,75.1,69.9,28.09,West,270,1.0,5.0,84,0.00,,,0.00,Weather View 32 v70,2013-07-24 14:38:00,
2013-07-24 10:43:00,75.4,70.9,28.09,West,270,0.0,5.0,86,0.00,,,0.00,Weather View 32 v70,2013-07-24 14:43:00,
2013-07-24 10:48:00,75.7,71.2,28.10,NE,45,0.0,4.0,86,0.00,,,0.00,Weather View 32 v70,2013-07-24 14:48:00,
2013-07-24 10:53:00,75.8,68.8,28.10,ESE,112,0.0,4.0,79,0.00,,,0.00,Weather View 32 v70,2013-07-24 14:53:00,
2013-07-24 10:58:00,75.9,70.3,28.10,ESE,112,2.0,5.0,83,0.00,,,0.00,Weather View 32 v70,2013-07-24 14:58:00,
2013-07-24 11:03:00,76.0,69.4,28.10,East,90,4.0,5.0,80,0.00,,,0.00,Weather View 32 v70,2013-07-24 15:03:00,
2013-07-24 11:08:00,75.9,69.6,28.10,ESE,112,2.0,6.0,81,0.00,,,0.00,Weather View 32 v70,2013-07-24 15:08:00,
2013-07-24 11:13:00,76.1,70.5,28.10,East,90,1.0,6.0,83,0.00,,,0.00,Weather View 32 v70,2013-07-24 15:13:00,
2013-07-24 11:18:00,76.5,70.2,28.10,East,90,0.0,6.0,81,0.00,,,0.00,Weather View 32 v70,2013-07-24 15:18:00,
2013-07-24 11:23:00,77.1,70.8,28.10,South,180,0.0,6.0,81,0.00,,,0.00,Weather View 32 v70,2013-07-24 15:23:00,
2013-07-24 11:28:00,77.1,69.3,28.10,North,360,0.0,6.0,77,0.00,,,0.00,Weather View 32 v70,2013-07-24 15:28:00,
2013-07-24 11:33:00,76.9,69.5,28.10,SE,135,0.0,6.0,78,0.00,,,0.00,Weather View 32 v70,2013-07-24 15:33:00,
2013-07-24 11:38:00,76.9,70.6,28.11,SE,135,2.0,6.0,81,0.00,,,0.00,Weather View 32 v70,2013-07-24 15:38:00,
2013-07-24 11:43:00,76.9,69.5,28.11,North,360,2.0,6.0,78,0.00,,,0.00,Weather View 32 v70,2013-07-24 15:43:00,
2013-07-24 11:48:00,76.9,70.2,28.11,NNE,22,0.0,6.0,80,0.00,,,0.00,Weather View 32 v70,2013-07-24 15:48:00,
2013-07-24 11:53:00,76.7,68.9,28.11,SE,135,1.0,6.0,77,0.00,,,0.00,Weather View 32 v70,2013-07-24 15:53:00,
2013-07-24 11:58:00,75.9,68.5,28.11,NNE,22,0.0,6.0,78,0.00,,,0.00,Weather View 32 v70,2013-07-24 15:58:00,
2013-07-24 12:03:00,75.3,68.3,28.11,East,90,1.0,6.0,79,0.00,,,0.00,Weather View 32 v70,2013-07-24 16:03:00,
2013-07-24 12:08:00,74.9,68.7,28.11,SE,135,0.0,4.0,81,0.00,,,0.00,Weather View 32 v70,2013-07-24 16:08:00,
2013-07-24 12:13:00,74.8,69.3,28.11,East,90,0.0,4.0,83,0.00,,,0.00,Weather View 32 v70,2013-07-24 16:13:00,
2013-07-24 12:18:00,75.6,71.1,28.11,East,90,0.0,4.0,86,0.00,,,0.00,Weather View 32 v70,2013-07-24 16:18:00,
2013-07-24 12:23:00,76.4,69.7,28.11,ESE,112,1.0,4.0,80,0.00,,,0.00,Weather View 32 v70,2013-07-24 16:23:00,
2013-07-24 12:28:00,76.8,70.9,28.11,ESE,112,0.0,4.0,82,0.00,,,0.00,Weather View 32 v70,2013-07-24 16:28:00,
2013-07-24 12:33:00,77.1,71.5,28.11,North,360,2.0,4.0,83,0.00,,,0.00,Weather View 32 v70,2013-07-24 16:33:00,
2013-07-24 12:38:00,77.8,70.0,28.11,NE,45,1.0,5.0,77,0.00,,,0.00,Weather View 32 v70,2013-07-24 16:38:00,
2013-07-24 12:43:00,78.2,71.1,28.11,NW,315,1.0,5.0,79,0.00,,,0.00,Weather View 32 v70,2013-07-24 16:43:00,
2013-07-24 12:48:00,78.5,69.5,28.11,NNE,22,0.0,5.0,74,0.00,,,0.00,Weather View 32 v70,2013-07-24 16:48:00,
2013-07-24 12:53:00,79.4,70.4,28.11,East,90,5.0,5.0,74,0.00,,,0.00,Weather View 32 v70,2013-07-24 16:53:00,
2013-07-24 12:58:00,79.8,71.5,28.11,East,90,0.0,7.0,76,0.00,,,0.00,Weather View 32 v70,2013-07-24 16:58:00,
2013-07-24 13:03:00,80.4,72.5,28.11,SE,135,0.0,7.0,77,0.00,,,0.00,Weather View 32 v70,2013-07-24 17:03:00,
2013-07-24 13:08:00,80.8,72.9,28.11,East,90,1.0,7.0,77,0.00,,,0.00,Weather View 32 v70,2013-07-24 17:08:00,
2013-07-24 13:13:00,81.6,72.5,28.10,NE,45,1.0,7.0,74,0.00,,,0.00,Weather View 32 v70,2013-07-24 17:13:00,
2013-07-24 13:18:00,81.4,68.5,28.10,SE,135,3.0,7.0,65,0.00,,,0.00,Weather View 32 v70,2013-07-24 17:18:00,
2013-07-24 13:23:00,79.2,69.4,28.10,ESE,112,4.0,7.0,72,0.00,,,0.00,Weather View 32 v70,2013-07-24 17:23:00,
2013-07-24 13:28:00,79.3,69.0,28.10,SE,135,3.0,7.0,71,0.00,,,0.00,Weather View 32 v70,2013-07-24 17:28:00,
2013-07-24 13:33:00,79.2,69.4,28.10,East,90,3.0,7.0,72,0.00,,,0.00,Weather View 32 v70,2013-07-24 17:33:00,
2013-07-24 13:38:00,80.0,69.3,28.10,East,90,1.0,7.0,70,0.00,,,0.00,Weather View 32 v70,2013-07-24 17:38:00,
2013-07-24 13:43:00,80.6,68.1,28.10,NE,45,1.0,7.0,66,0.00,,,0.00,Weather View 32 v70,2013-07-24 17:43:00,
2013-07-24 13:48:00,79.5,68.4,28.10,SE,135,2.0,7.0,69,0.00,,,0.00,Weather View 32 v70,2013-07-24 17:48:00,
2013-07-24 13:53:00,79.9,70.0,28.10,NE,45,0.0,7.0,72,0.00,,,0.00,Weather View 32 v70,2013-07-24 17:53:00,
2013-07-24 13:58:00,79.5,69.2,28.10,ESE,112,3.0,7.0,71,0.00,,,0.00,Weather View 32 v70,2013-07-24 17:58:00,
2013-07-24 14:03:00,78.8,69.0,28.10,ESE,112,1.0,7.0,72,0.00,,,0.01,Weather View 32 v70,2013-07-24 18:03:00,
2013-07-24 14:08:00,77.7,68.7,28.10,East,90,1.0,7.0,74,0.01,,,0.01,Weather View 32 v70,2013-07-24 18:08:00,
2013-07-24 14:13:00,76.7,69.3,28.10,SE,135,1.0,7.0,78,0.01,,,0.01,Weather View 32 v70,2013-07-24 18:13:00,
2013-07-24 14:18:00,76.1,69.1,28.10,North,360,0.0,7.0,79,0.01,,,0.01,Weather View 32 v70,2013-07-24 18:18:00,
2013-07-24 14:23:00,75.9,70.0,28.10,ESE,112,2.0,7.0,82,0.01,,,0.01,Weather View 32 v70,2013-07-24 18:23:00,
2013-07-24 14:28:00,75.8,70.6,28.10,NE,45,0.0,7.0,84,0.01,,,0.01,Weather View 32 v70,2013-07-24 18:28:00,
2013-07-24 14:33:00,75.7,69.8,28.09,West,270,0.0,7.0,82,0.01,,,0.01,Weather View 32 v70,2013-07-24 18:33:00,
2013-07-24 14:38:00,75.9,69.3,28.10,ESE,112,1.0,7.0,80,0.01,,,0.01,Weather View 32 v70,2013-07-24 18:38:00,
2013-07-24 14:43:00,77.5,74.0,28.09,East,90,1.0,7.0,89,0.01,,,0.01,Weather View 32 v70,2013-07-24 18:43:00,
2013-07-24 14:48:00,78.9,72.5,28.09,ESE,112,6.0,6.0,81,0.01,,,0.01,Weather View 32 v70,2013-07-24 18:48:00,
2013-07-24 14:53:00,78.9,70.7,28.10,SE,135,4.0,8.0,76,0.01,,,0.01,Weather View 32 v70,2013-07-24 18:53:00,
2013-07-24 14:58:00,78.9,70.7,28.10,ESE,112,2.0,9.0,76,0.01,,,0.01,Weather View 32 v70,2013-07-24 18:58:00,
2013-07-24 15:03:00,79.8,73.4,28.10,SE,135,4.0,9.0,81,0.01,,,0.01,Weather View 32 v70,2013-07-24 19:03:00,
2013-07-24 15:08:00,79.8,72.3,28.10,ESE,112,3.0,9.0,78,0.00,,,0.01,Weather View 32 v70,2013-07-24 19:08:00,
2013-07-24 15:13:00,80.2,69.9,28.10,SE,135,0.0,10.0,71,0.00,,,0.01,Weather View 32 v70,2013-07-24 19:13:00,
2013-07-24 15:18:00,81.1,70.8,28.10,South,180,1.0,10.0,71,0.00,,,0.01,Weather View 32 v70,2013-07-24 19:18:00,
2013-07-24 15:23:00,80.9,70.2,28.10,North,360,6.0,10.0,70,0.00,,,0.01,Weather View 32 v70,2013-07-24 19:23:00,
2013-07-24 15:28:00,80.2,67.8,28.10,North,360,4.0,10.0,66,0.00,,,0.01,Weather View 32 v70,2013-07-24 19:28:00,
2013-07-24 15:33:00,79.7,68.6,28.10,South,180,0.0,10.0,69,0.00,,,0.01,Weather View 32 v70,2013-07-24 19:33:00,
2013-07-24 15:38:00,79.4,70.7,28.10,SE,135,0.0,10.0,75,0.00,,,0.01,Weather View 32 v70,2013-07-24 19:38:00,
2013-07-24 15:43:00,80.1,70.6,28.10,NE,45,0.0,10.0,73,0.00,,,0.01,Weather View 32 v70,2013-07-24 19:43:00,
2013-07-24 15:48:00,81.2,72.5,28.10,East,90,0.0,10.0,75,0.00,,,0.01,Weather View 32 v70,2013-07-24 19:48:00,
2013-07-24 15:54:00,82.4,73.2,28.10,North,360,0.0,10.0,74,0.00,,,0.01,Weather View 32 v70,2013-07-24 19:54:00,
2013-07-24 15:59:00,82.9,71.2,28.10,SE,135,1.0,10.0,68,0.00,,,0.01,Weather View 32 v70,2013-07-24 19:59:00,
2013-07-24 16:04:00,81.9,67.5,28.10,NW,315,1.0,10.0,62,0.00,,,0.01,Weather View 32 v70,2013-07-24 20:04:00,
2013-07-24 16:09:00,82.2,69.2,28.10,NNW,337,0.0,10.0,65,0.00,,,0.01,Weather View 32 v70,2013-07-24 20:09:00,
2013-07-24 16:14:00,81.4,67.5,28.10,South,180,0.0,8.0,63,0.00,,,0.01,Weather View 32 v70,2013-07-24 20:14:00,
2013-07-24 16:19:00,80.7,68.2,28.10,WSW,247,0.0,8.0,66,0.00,,,0.01,Weather View 32 v70,2013-07-24 20:19:00,
2013-07-24 16:24:00,79.9,68.3,28.10,East,90,0.0,8.0,68,0.00,,,0.01,Weather View 32 v70,2013-07-24 20:24:00,
2013-07-24 16:29:00,79.7,67.7,28.10,North,360,4.0,8.0,67,0.00,,,0.01,Weather View 32 v70,2013-07-24 20:29:00,
2013-07-24 16:34:00,80.2,70.7,28.10,North,360,0.0,8.0,73,0.00,,,0.01,Weather View 32 v70,2013-07-24 20:34:00,
2013-07-24 16:39:00,80.9,66.6,28.09,North,360,5.0,9.0,62,0.00,,,0.01,Weather View 32 v70,2013-07-24 20:39:00,
2013-07-24 16:44:00,81.6,66.8,28.10,ESE,112,6.0,9.0,61,0.00,,,0.01,Weather View 32 v70,2013-07-24 20:44:00,
2013-07-24 16:49:00,81.2,65.9,28.10,North,360,1.0,9.0,60,0.00,,,0.01,Weather View 32 v70,2013-07-24 20:49:00,
2013-07-24 16:54:00,80.6,66.3,28.10,NNE,22,1.0,9.0,62,0.00,,,0.01,Weather View 32 v70,2013-07-24 20:54:00,
2013-07-24 16:59:00,80.3,66.5,28.10,SE,135,2.0,9.0,63,0.00,,,0.01,Weather View 32 v70,2013-07-24 20:59:00,
2013-07-24 17:05:00,79.9,65.7,28.10,North,360,2.0,9.0,62,0.00,,,0.01,Weather View 32 v70,2013-07-24 21:05:00,
2013-07-24 17:10:00,80.1,66.3,28.10,NNE,22,1.0,9.0,63,0.00,,,0.01,Weather View 32 v70,2013-07-24 21:10:00,
2013-07-24 17:15:00,80.5,66.7,28.10,NW,315,1.0,9.0,63,0.00,,,0.01,Weather View 32 v70,2013-07-24 21:15:00,
2013-07-24 17:20:00,79.7,65.0,28.10,SE,135,1.0,9.0,61,0.00,,,0.01,Weather View 32 v70,2013-07-24 21:20:00,
2013-07-24 17:25:00,79.3,66.0,28.10,NW,315,0.0,9.0,64,0.00,,,0.01,Weather View 32 v70,2013-07-24 21:25:00,
2013-07-24 17:30:00,78.2,64.1,28.10,North,360,7.0,9.0,62,0.00,,,0.01,Weather View 32 v70,2013-07-24 21:30:00,
2013-07-24 17:35:00,77.5,63.9,28.10,NE,45,0.0,9.0,63,0.00,,,0.01,Weather View 32 v70,2013-07-24 21:35:00,
2013-07-24 17:40:00,76.9,63.7,28.10,NW,315,2.0,9.0,64,0.00,,,0.01,Weather View 32 v70,2013-07-24 21:40:00,
2013-07-24 17:45:00,76.3,64.1,28.10,NNE,22,2.0,9.0,66,0.00,,,0.01,Weather View 32 v70,2013-07-24 21:45:00,
2013-07-24 17:50:00,75.9,63.2,28.10,NNE,22,5.0,11.0,65,0.00,,,0.01,Weather View 32 v70,2013-07-24 21:50:00,
2013-07-24 17:55:00,75.6,63.4,28.10,North,360,4.0,11.0,66,0.00,,,0.01,Weather View 32 v70,2013-07-24 21:55:00,
2013-07-24 18:00:00,75.3,63.5,28.10,North,360,4.0,11.0,67,0.00,,,0.01,Weather View 32 v70,2013-07-24 22:00:00,
2013-07-24 18:05:00,74.9,63.6,28.11,NNE,22,2.0,11.0,68,0.00,,,0.01,Weather View 32 v70,2013-07-24 22:05:00,
2013-07-24 18:10:00,74.8,63.5,28.10,North,360,2.0,11.0,68,0.00,,,0.01,Weather View 32 v70,2013-07-24 22:10:00,
2013-07-24 18:15:00,74.7,64.6,28.10,North,360,5.0,11.0,71,0.00,,,0.01,Weather View 32 v70,2013-07-24 22:15:00,
2013-07-24 18:20:00,74.1,64.1,28.10,North,360,1.0,11.0,71,0.00,,,0.01,Weather View 32 v70,2013-07-24 22:20:00,
2013-07-24 18:25:00,73.7,64.5,28.10,North,360,4.0,11.0,73,0.00,,,0.01,Weather View 32 v70,2013-07-24 22:25:00,
2013-07-24 18:30:00,73.8,63.8,28.10,NNE,22,7.0,11.0,71,0.00,,,0.01,Weather View 32 v70,2013-07-24 22:30:00,
2013-07-24 18:35:00,74.8,64.3,28.10,North,360,5.0,11.0,70,0.00,,,0.01,Weather View 32 v70,2013-07-24 22:35:00,
2013-07-24 18:40:00,76.2,66.1,28.11,North,360,2.0,11.0,71,0.00,,,0.01,Weather View 32 v70,2013-07-24 22:40:00,
2013-07-24 18:45:00,77.3,65.4,28.11,North,360,6.0,11.0,67,0.00,,,0.01,Weather View 32 v70,2013-07-24 22:45:00,
2013-07-24 18:50:00,77.1,65.3,28.11,NNE,22,2.0,11.0,67,0.00,,,0.01,Weather View 32 v70,2013-07-24 22:50:00,
2013-07-24 18:55:00,76.2,64.4,28.12,North,360,2.0,9.0,67,0.00,,,0.01,Weather View 32 v70,2013-07-24 22:55:00,
2013-07-24 19:05:00,74.8,63.5,28.12,NNE,22,1.0,9.0,68,0.00,,,0.01,Weather View 32 v70,2013-07-24 23:05:00,
2013-07-24 19:10:00,74.2,62.9,28.11,NE,45,6.0,12.0,68,0.00,,,0.01,Weather View 32 v70,2013-07-24 23:10:00,
2013-07-24 19:15:00,73.7,63.3,28.12,North,360,6.0,12.0,70,0.00,,,0.01,Weather View 32 v70,2013-07-24 23:15:00,
2013-07-24 19:20:00,73.3,62.5,28.12,North,360,5.0,12.0,69,0.00,,,0.01,Weather View 32 v70,2013-07-24 23:20:00,
2013-07-24 19:25:00,72.9,62.5,28.12,North,360,6.0,12.0,70,0.00,,,0.01,Weather View 32 v70,2013-07-24 23:25:00,
2013-07-24 19:30:00,72.7,62.3,28.12,North,360,4.0,12.0,70,0.00,,,0.01,Weather View 32 v70,2013-07-24 23:30:00,
2013-07-24 19:35:00,72.4,62.4,28.12,SE,135,1.0,12.0,71,0.00,,,0.01,Weather View 32 v70,2013-07-24 23:35:00,
2013-07-24 19:40:00,72.1,62.1,28.13,North,360,4.0,12.0,71,0.00,,,0.01,Weather View 32 v70,2013-07-24 23:40:00,
2013-07-24 19:45:00,71.8,61.9,28.13,North,360,2.0,12.0,71,0.00,,,0.01,Weather View 32 v70,2013-07-24 23:45:00,
2013-07-24 19:50:00,71.6,61.7,28.14,NE,45,4.0,12.0,71,0.00,,,0.01,Weather View 32 v70,2013-07-24 23:50:00,
2013-07-24 19:55:00,71.4,61.9,28.14,WNW,292,1.0,12.0,72,0.00,,,0.01,Weather View 32 v70,2013-07-24 23:55:00,
2013-07-24 20:00:00,71.2,61.3,28.14,SE,135,2.0,12.0,71,0.00,,,0.01,Weather View 32 v70,2013-07-25 00:00:00,
2013-07-24 20:05:00,71.2,61.7,28.14,NW,315,1.0,12.0,72,0.00,,,0.01,Weather View 32 v70,2013-07-25 00:05:00,
2013-07-24 20:10:00,70.8,60.9,28.14,South,180,0.0,10.0,71,0.00,,,0.01,Weather View 32 v70,2013-07-25 00:10:00,
2013-07-24 20:15:00,70.6,60.7,28.15,NW,315,1.0,10.0,71,0.00,,,0.01,Weather View 32 v70,2013-07-25 00:15:00,
2013-07-24 20:20:00,70.3,60.4,28.15,NE,45,1.0,10.0,71,0.00,,,0.01,Weather View 32 v70,2013-07-25 00:20:00,
2013-07-24 20:25:00,70.0,60.5,28.15,North,360,2.0,10.0,72,0.00,,,0.01,Weather View 32 v70,2013-07-25 00:25:00,
2013-07-24 20:30:00,69.9,60.0,28.15,North,360,7.0,10.0,71,0.00,,,0.01,Weather View 32 v70,2013-07-25 00:30:00,
2013-07-24 20:35:00,69.7,60.2,28.16,North,360,3.0,10.0,72,0.00,,,0.01,Weather View 32 v70,2013-07-25 00:35:00,
2013-07-24 20:40:00,69.6,60.1,28.16,North,360,4.0,10.0,72,0.00,,,0.01,Weather View 32 v70,2013-07-25 00:40:00,
2013-07-24 20:45:00,69.4,60.3,28.16,North,360,3.0,9.0,73,0.00,,,0.01,Weather View 32 v70,2013-07-25 00:45:00,
2013-07-24 20:50:00,69.3,60.2,28.16,NNE,22,2.0,9.0,73,0.00,,,0.01,Weather View 32 v70,2013-07-25 00:50:00,
2013-07-24 20:55:00,69.2,60.1,28.16,NNE,22,4.0,9.0,73,0.00,,,0.01,Weather View 32 v70,2013-07-25 00:55:00,
2013-07-24 21:00:00,69.0,60.3,28.16,North,360,2.0,9.0,74,0.00,,,0.01,Weather View 32 v70,2013-07-25 01:00:00,
2013-07-24 21:05:00,68.9,60.2,28.16,North,360,2.0,9.0,74,0.00,,,0.01,Weather View 32 v70,2013-07-25 01:05:00,
2013-07-24 21:10:00,68.9,60.2,28.16,North,360,2.0,9.0,74,0.00,,,0.01,Weather View 32 v70,2013-07-25 01:10:00,
2013-07-24 21:15:00,68.8,60.5,28.17,NNE,22,1.0,9.0,75,0.00,,,0.01,Weather View 32 v70,2013-07-25 01:15:00,
2013-07-24 21:20:00,68.7,60.0,28.17,NNE,22,1.0,9.0,74,0.00,,,0.01,Weather View 32 v70,2013-07-25 01:20:00,
2013-07-24 21:25:00,68.6,60.0,28.17,North,360,2.0,9.0,74,0.00,,,0.01,Weather View 32 v70,2013-07-25 01:25:00,
2013-07-24 21:30:00,68.5,59.9,28.17,North,360,2.0,9.0,74,0.00,,,0.01,Weather View 32 v70,2013-07-25 01:30:00,
2013-07-24 21:35:00,68.3,59.7,28.17,NNE,22,1.0,6.0,74,0.00,,,0.01,Weather View 32 v70,2013-07-25 01:35:00,
2013-07-24 21:41:00,68.0,59.8,28.18,NNE,22,0.0,6.0,75,0.00,,,0.01,Weather View 32 v70,2013-07-25 01:41:00,
2013-07-24 21:46:00,67.8,59.9,28.18,East,90,0.0,6.0,76,0.00,,,0.01,Weather View 32 v70,2013-07-25 01:46:00,
2013-07-24 21:51:00,67.6,60.1,28.18,SE,135,0.0,6.0,77,0.00,,,0.01,Weather View 32 v70,2013-07-25 01:51:00,
2013-07-24 21:56:00,67.4,59.9,28.18,South,180,0.0,6.0,77,0.00,,,0.01,Weather View 32 v70,2013-07-25 01:56:00,
2013-07-24 22:01:00,67.3,59.8,28.18,SSE,157,0.0,6.0,77,0.00,,,0.01,Weather View 32 v70,2013-07-25 02:01:00,
2013-07-24 22:06:00,67.3,60.2,28.18,SSE,157,0.0,6.0,78,0.00,,,0.01,Weather View 32 v70,2013-07-25 02:06:00,
2013-07-24 22:11:00,67.3,60.2,28.18,SE,135,1.0,6.0,78,0.00,,,0.01,Weather View 32 v70,2013-07-25 02:11:00,
2013-07-24 22:16:00,67.2,59.7,28.19,SE,135,0.0,6.0,77,0.00,,,0.01,Weather View 32 v70,2013-07-25 02:16:00,
2013-07-24 22:21:00,67.1,59.6,28.19,SE,135,0.0,6.0,77,0.00,,,0.01,Weather View 32 v70,2013-07-25 02:21:00,
2013-07-24 22:26:00,67.1,60.0,28.19,SE,135,0.0,4.0,78,0.00,,,0.01,Weather View 32 v70,2013-07-25 02:26:00,
2013-07-24 22:31:00,67.0,59.5,28.20,SSE,157,0.0,3.0,77,0.00,,,0.01,Weather View 32 v70,2013-07-25 02:31:00,
2013-07-24 22:36:00,66.9,59.8,28.20,NNE,22,1.0,3.0,78,0.00,,,0.01,Weather View 32 v70,2013-07-25 02:36:00,
2013-07-24 22:41:00,66.9,59.8,28.20,North,360,0.0,2.0,78,0.00,,,0.01,Weather View 32 v70,2013-07-25 02:41:00,
2013-07-24 22:46:00,66.7,59.6,28.19,North,360,2.0,3.0,78,0.00,,,0.01,Weather View 32 v70,2013-07-25 02:46:00,
2013-07-24 22:51:00,66.6,59.9,28.19,North,360,3.0,5.0,79,0.00,,,0.01,Weather View 32 v70,2013-07-25 02:51:00,
2013-07-24 22:56:00,66.4,59.7,28.20,North,360,4.0,6.0,79,0.00,,,0.01,Weather View 32 v70,2013-07-25 02:56:00,
2013-07-24 23:01:00,66.4,59.7,28.20,North,360,1.0,6.0,79,0.00,,,0.01,Weather View 32 v70,2013-07-25 03:01:00,
2013-07-24 23:06:00,66.3,59.6,28.20,North,360,1.0,6.0,79,0.00,,,0.01,Weather View 32 v70,2013-07-25 03:06:00,
2013-07-24 23:12:00,66.1,59.4,28.20,North,360,0.0,6.0,79,0.00,,,0.01,Weather View 32 v70,2013-07-25 03:12:00,
2013-07-24 23:17:00,66.0,59.6,28.20,North,360,1.0,6.0,80,0.00,,,0.01,Weather View 32 v70,2013-07-25 03:17:00,
2013-07-24 23:23:00,65.9,59.2,28.20,North,360,1.0,6.0,79,0.00,,,0.01,Weather View 32 v70,2013-07-25 03:23:00,
2013-07-24 23:28:00,65.9,58.8,28.20,NNE,22,1.0,6.0,78,0.00,,,0.01,Weather View 32 v70,2013-07-25 03:28:00,
2013-07-24 23:33:00,65.8,59.1,28.20,NNE,22,1.0,6.0,79,0.00,,,0.01,Weather View 32 v70,2013-07-25 03:33:00,
2013-07-24 23:38:00,65.7,59.0,28.20,North,360,3.0,6.0,79,0.00,,,0.01,Weather View 32 v70,2013-07-25 03:38:00,
2013-07-24 23:44:00,65.7,58.6,28.20,NE,45,2.0,6.0,78,0.00,,,0.01,Weather View 32 v70,2013-07-25 03:44:00,
2013-07-24 23:49:00,65.8,58.4,28.20,North,360,4.0,6.0,77,0.00,,,0.01,Weather View 32 v70,2013-07-25 03:49:00,
2013-07-24 23:54:00,65.9,57.7,28.20,NNE,22,4.0,6.0,75,0.00,,,0.01,Weather View 32 v70,2013-07-25 03:54:00,